Location: Düngen
(52.0952°N, 10.0219°E)
Time: 16:02:58
(UTC+00:00)

NOSS 2-2 (C) - Pass Details

Date: 11 March 2026
Orbit: 377 x 1687 km, 63.3° (Epoch: 14 April)

Event Time Altitude Azimuth Distance (km) Brightness Sun altitude
Rises 18:27:09 0° 246° (WSW) 2,388 7.6 -11.5°
Reaches altitude 10° 18:29:24 10° 256° (WSW) 1,447 6.6 -11.9°
Maximum altitude 18:32:16 35° 325° (NW) 643 4.1 -12.3°
Drops below altitude 10° 18:35:03 10° 34° (NNE) 1,415 5.2 -12.7°
Enters shadow 18:35:51 - 38° (NE) 1,737 5.6 -12.8°
